Wind_Speed
40 40 41 40 40 39 39 38 38 38 37 36 36 35 34 34 33 33 32 32 33 33 33 34 35 35 35 36 37 38 38 38 38 38 38 38 37 38 39 39 38 38 38 37 37 36 36 36 36 36 36 36 36 35 35 35 35 35 35 35 35 35 35 35 35 35 35 35 35 36 36 36 37 37 38 38 39 39 39 39 39 38 38 38 38
41 42 42 41 41 40 39 39 39 39 39 38 38 38 36 35 35 34 34 33 33 33 33 33 34 35 35 36 37 37 38 38 38 38 38 38 38 37 38 38 38 38 38 38 38 37 37 37 37 37 37 37 37 36 36 36 36 36 36 36 36 36 36 36 36 36 36 36 36 37 38 38 38 39 39 40 40 40 39 38 38 38 38 38 38
43 43 43 42 42 42 41 40 40 41 40 40 40 40 39 38 37 36 35 34 34 34 33 33 34 35 36 36 37 37 38 38 38 38 39 39 38 37 37 38 38 37 38 38 38 38 38 37 37 37 37 37 37 37 37 37 37 37 37 37 37 37 37 37 37 37 38 38 38 38 39 40 40 40 40 40 40 39 38 38 38 37 38 38 38
45 44 43 43 43 43 43 42 42 42 42 42 42 42 41 40 39 38 37 36 35 34 34 34 35 36 37 37 37 38 38 38 38 39 39 39 39 38 37 38 39 38 38 38 38 38 38 38 38 38 38 38 38 38 38 38 38 38 38 38 38 38 38 38 38 39 39 40 40 41 41 41 41 41 41 40 39 39 39 39 39 39 39 39 40
47 46 44 44 45 45 45 44 44 44 44 44 44 43 42 42 41 40 39 38 37 36 36 36 36 37 37 37 37 38 38 38 38 39 39 39 39 39 38 39 40 40 39 39 38 39 39 39 39 39 38 38 38 38 38 39 39 39 40 40 40 40 40 40 40 41 41 42 42 43 43 43 42 42 41 40 40 40 40 40 40 41 41 41 41
46 48 48 47 47 47 46 46 46 46 46 46 45 44 44 44 43 43 41 40 40 39 39 39 38 38 38 38 38 38 38 39 39 39 40 39 39 39 39 39 40 41 40 39 39 39 39 39 39 39 39 39 39 39 39 40 40 41 41 42 42 42 42 43 43 43 43 43 44 44 44 44 44 43 42 41 41 41 41 41 42 42 43 43 44
43 47 50 50 49 48 47 46 47 47 47 47 46 46 45 45 45 45 44 43 43 42 42 42 41 40 40 39 39 39 39 39 40 41 40 40 40 39 39 39 40 40 41 40 39 39 40 40 40 41 40 40 40 41 41 42 43 44 44 44 44 45 45 45 45 45 44 44 44 44 45 45 45 44 43 42 42 42 43 43 44 44 45 45 46
42 47 50 53 53 51 48 47 47 47 48 48 48 48 48 48 47 46 45 45 45 45 44 44 44 44 43 42 42 42 41 41 42 42 42 41 41 41 41 41 41 41 41 41 41 41 41 42 42 42 42 42 43 43 44 44 45 46 47 47 47 48 48 48 47 46 45 44 43 44 45 46 46 45 44 44 44 44 44 45 46 46 47 47 48
45 49 50 51 51 51 50 48 47 48 48 49 49 50 50 50 50 48 47 47 48 48 47 47 47 47 46 45 45 45 44 44 44 44 44 43 42 42 42 43 43 42 42 42 42 43 43 44 44 44 44 45 45 45 46 47 47 48 49 50 50 50 50 50 50 49 47 45 43 43 45 46 46 45 45 45 44 45 46 47 48 48 49 49 50
41 46 51 50 46 45 48 50 50 49 49 49 50 51 52 53 52 51 50 50 50 50 50 50 50 50 49 48 48 47 47 47 47 47 46 46 46 45 45 45 45 45 44 44 44 45 46 46 46 46 47 47 48 48 48 49 50 50 51 51 52 52 52 52 52 50 49 47 45 44 45 45 45 46 46 45 45 46 48 49 50 50 51 51 52
42 41 47 49 44 40 42 48 50 50 51 52 52 53 54 54 54 53 53 54 53 53 52 52 52 52 51 51 50 49 50 50 49 49 49 49 49 48 48 48 48 47 47 47 48 48 48 49 49 49 50 50 51 50 51 51 52 52 52 53 53 53 54 54 53 51 50 49 48 46 46 45 45 46 46 46 47 48 50 52 52 52 53 54 55
48 42 41 43 44 42 43 47 50 51 54 56 56 56 56 55 54 55 56 56 56 56 55 54 54 54 53 53 52 52 52 52 52 51 51 51 50 50 50 50 49 49 50 51 51 51 51 52 52 52 52 53 53 53 53 53 54 54 54 54 53 53 54 53 53 52 51 50 49 49 48 46 47 47 48 48 50 52 53 54 54 55 56 56 56
47 45 43 44 44 45 50 53 53 52 52 55 56 56 57 56 56 56 57 58 58 58 58 57 57 56 55 54 55 55 54 55 55 54 54 53 52 52 51 52 51 52 52 53 53 53 54 54 54 54 55 55 55 55 55 55 55 55 55 54 53 52 51 51 51 52 52 51 51 52 50 48 49 49 50 51 53 54 55 55 56 57 57 57 57
50 48 48 47 44 48 55 55 51 49 51 53 53 53 54 54 54 56 58 60 60 59 60 59 59 58 57 57 58 58 57 58 57 57 57 56 56 55 55 54 55 55 55 56 56 56 57 57 57 57 57 58 57 57 57 56 56 55 54 53 52 51 50 50 50 50 51 52 53 55 53 51 51 52 53 54 55 55 56 56 57 58 58 58 57
56 56 55 50 45 49 56 53 47 49 53 54 51 49 50 50 52 54 56 59 60 60 60 60 60 60 60 59 59 59 60 60 59 59 59 58 58 58 57 57 57 58 58 58 58 58 59 59 58 58 59 59 58 57 56 56 56 55 54 53 52 51 50 50 50 50 51 52 55 56 54 53 54 55 57 58 58 57 57 57 57 58 58 57 56
59 62 64 60 54 50 52 52 52 52 53 54 50 46 45 45 49 52 53 55 57 59 60 61 61 61 61 60 60 61 61 60 61 61 61 60 60 60 59 59 58 59 59 59 59 59 58 59 59 59 58 58 58 57 57 57 56 55 54 54 54 52 52 52 52 52 53 53 56 58 57 57 58 59 61 62 61 60 60 59 59 58 58 58 58
63 64 65 67 62 54 53 55 57 57 55 55 53 50 47 46 48 52 53 53 53 54 57 59 60 61 61 61 61 62 62 61 62 63 63 62 62 61 61 61 60 60 59 59 59 59 59 59 59 59 59 59 59 58 58 58 57 56 55 55 56 55 55 55 55 55 56 56 57 59 60 60 61 62 63 64 64 63 62 61 60 60 60 60 61
61 62 63 65 64 57 56 54 53 56 56 57 58 56 54 52 51 55 57 56 54 53 54 56 58 60 61 61 62 62 62 63 64 64 64 64 63 62 62 62 62 61 61 60 60 60 60 61 61 61 61 61 61 60 59 59 59 58 58 58 58 58 57 58 57 57 58 59 59 60 60 61 63 64 64 65 65 65 64 63 62 62 61 61 62
58 57 58 62 64 62 58 52 48 50 53 57 61 60 60 59 56 56 59 59 58 57 56 57 59 62 61 61 62 64 65 65 65 65 65 65 64 64 63 63 63 63 62 62 62 62 62 62 63 63 63 63 63 63 61 61 61 61 61 61 60 60 59 59 58 58 58 59 60 61 62 63 64 64 65 66 66 66 65 64 63 63 63 62 62
64 62 58 58 63 65 63 61 61 61 57 57 60 61 61 62 62 60 60 60 59 59 59 60 62 66 66 63 62 64 67 68 67 66 66 66 65 65 64 64 65 64 64 63 63 63 64 64 65 65 65 65 65 65 65 64 63 63 63 62 61 61 60 59 59 59 59 60 62 63 64 64 65 65 65 65 65 65 65 65 64 64 64 64 64
71 72 67 61 62 66 70 74 77 74 67 62 62 62 62 64 64 62 61 62 62 61 61 62 64 66 67 64 61 64 68 69 68 67 67 67 67 66 66 66 66 65 64 64 64 64 65 65 66 66 67 66 66 66 67 66 64 62 62 63 63 61 60 60 60 60 61 62 64 65 65 66 66 66 65 65 65 65 65 65 65 65 65 65 65
75 75 74 70 67 68 70 72 72 70 66 63 64 65 65 66 67 66 64 65 65 62 61 63 64 64 65 62 58 61 68 67 65 67 68 69 68 67 67 67 67 66 65 64 64 64 65 65 66 66 67 67 67 67 67 67 64 62 62 63 65 63 61 61 62 61 62 63 64 65 66 66 66 65 65 65 65 65 65 65 64 65 65 65 64
79 79 79 77 75 74 73 72 71 69 67 64 63 64 66 67 68 69 69 68 66 63 62 65 66 65 66 67 63 64 69 67 63 64 66 68 68 67 67 67 67 67 65 64 63 63 63 64 64 64 65 65 66 66 66 66 65 64 63 63 65 64 63 63 63 63 63 63 64 64 64 64 65 65 64 65 65 65 65 65 64 65 65 64 64
77 79 80 80 80 79 78 77 76 74 71 68 66 65 67 69 70 70 71 69 68 66 66 68 70 68 67 69 67 67 70 69 65 64 64 65 66 66 66 66 67 66 64 63 62 62 62 62 63 63 63 64 64 64 65 65 65 64 63 63 64 64 63 63 63 62 63 63 63 63 63 64 65 66 66 66 66 65 65 65 65 64 64 65 65
72 75 77 78 80 81 80 78 76 75 74 72 69 67 67 69 71 71 70 70 70 69 69 70 71 70 69 69 70 70 71 70 68 66 65 66 64 65 65 65 64 63 61 60 59 59 60 60 61 62 63 63 64 65 65 65 65 64 63 63 63 63 62 62 62 60 61 61 61 62 63 64 65 66 66 66 66 66 66 66 66 66 66 65 64
67 69 72 74 75 77 79 77 75 75 74 73 73 72 70 69 69 70 71 71 71 71 71 71 71 70 71 71 72 74 74 72 70 68 67 66 63 62 63 62 61 61 60 59 58 59 59 59 60 61 63 64 64 65 65 65 64 63 62 62 63 63 63 64 63 60 60 60 60 61 62 63 64 65 66 66 66 66 66 67 67 67 66 65 64
68 67 69 71 72 74 75 76 75 74 75 74 74 75 77 76 74 72 71 71 70 69 68 68 69 69 70 70 71 72 72 71 70 68 67 66 63 62 63 63 62 61 62 63 62 62 61 60 60 60 62 65 66 66 65 63 61 60 61 62 64 65 65 65 64 63 62 61 61 62 62 63 64 64 65 65 65 65 66 66 66 65 65 64 64
71 70 69 69 70 71 73 75 76 75 75 76 75 75 78 80 79 76 73 71 70 67 64 63 63 64 65 66 66 66 67 67 67 66 66 65 63 62 66 68 66 63 62 63 63 62 62 60 59 59 60 64 66 65 62 61 61 63 66 67 68 69 69 67 66 64 63 63 63 63 63 63 62 62 62 62 62 62 62 62 62 62 62 62 62
70 70 70 70 70 70 71 73 75 76 76 77 77 76 76 78 78 78 76 75 72 69 66 64 62 61 62 62 63 63 63 64 63 64 63 62 60 61 66 71 72 69 66 64 63 63 63 62 61 60 60 62 63 63 63 65 67 69 71 71 71 71 70 69 67 65 65 64 64 64 63 62 61 60 59 58 58 58 58 58 58 59 59 60 60
68 68 69 70 70 70 70 70 72 74 75 76 76 77 76 77 77 77 77 77 76 74 71 68 65 63 63 63 64 64 64 63 62 62 62 62 62 64 67 70 71 71 71 72 71 71 71 70 70 70 70 70 70 70 71 72 72 72 71 71 71 70 69 68 66 65 64 63 64 63 63 62 60 59 57 56 56 57 57 58 58 59 60 60 61
66 67 68 68 69 70 69 69 69 71 72 73 73 75 76 76 77 77 77 78 78 78 76 73 70 67 65 64 64 64 64 64 63 62 62 63 64 65 66 66 66 66 68 70 71 71 73 73 74 76 76 77 76 75 74 72 71 70 69 68 68 67 66 65 63 62 62 61 61 61 61 61 60 59 58 57 57 58 58 59 60 60 61 61 61
66 66 66 67 67 68 68 69 69 69 70 70 70 71 72 74 75 76 76 77 77 77 77 76 74 73 70 68 66 65 64 64 63 61 60 59 60 61 62 63 62 62 62 63 63 64 65 67 69 70 71 71 71 70 69 67 65 64 63 63 63 62 62 61 61 60 60 59 59 59 59 60 60 60 60 59 59 59 60 60 60 60 60 60 60
68 67 67 67 67 67 67 67 67 68 69 69 69 70 70 71 71 72 74 75 75 75 75 74 74 74 73 72 70 68 66 64 64 62 60 58 56 57 58 59 59 59 59 59 59 59 59 59 60 61 62 63 63 62 62 61 59 58 58 58 58 58 58 59 59 59 59 59 59 59 59 60 60 61 61 61 61 61 61 61 60 60 59 59 59
70 70 69 69 68 68 68 67 67 67 67 68 69 69 70 70 70 70 71 72 72 73 73 73 72 72 72 71 70 69 67 65 64 64 63 61 60 58 57 57 58 58 58 58 57 56 55 54 54 55 56 57 57 56 56 55 55 55 54 54 55 56 57 57 58 59 59 59 59 60 60 61 61 61 61 62 62 62 62 61 61 60 60 60 60
72 72 72 71 71 70 70 70 69 68 68 67 68 68 69 69 70 70 70 70 71 71 71 71 71 71 70 69 69 68 66 65 65 64 64 64 63 62 61 61 60 60 60 60 59 58 57 56 55 56 56 56 56 56 55 55 55 55 55 56 56 57 58 58 59 60 60 60 61 61 62 62 62 62 61 62 62 62 62 62 61 61 61 61 61
74 74 74 73 73 73 72 72 72 71 70 69 69 68 68 68 68 69 70 70 70 70 70 70 70 70 69 68 68 67 66 65 64 64 64 64 64 63 63 63 63 63 62 62 61 61 61 60 60 59 59 59 59 59 59 59 59 60 60 60 60 60 60 61 61 62 62 62 62 62 62 62 61 61 61 61 62 62 62 62 62 62 62 63 63
76 75 75 75 75 75 75 74 74 74 73 72 71 70 69 69 68 68 68 69 69 69 69 69 69 68 68 68 67 67 66 65 64 64 63 63 63 63 62 63 63 63 63 63 62 62 62 62 62 62 62 62 61 62 62 62 62 63 63 63 63 62 62 62 63 63 63 62 61 61 62 62 61 61 61 61 61 62 62 62 63 63 64 64 65
78 77 77 76 76 77 76 76 76 76 76 75 74 73 72 71 70 69 68 68 68 69 69 68 68 67 67 67 66 66 66 65 65 64 63 62 62 62 62 61 61 61 62 62 61 61 61 61 62 62 62 62 62 62 62 63 63 63 63 63 63 63 62 62 63 62 62 62 61 61 61 61 61 62 62 62 62 62 63 63 64 65 66 66 66
80 80 79 78 78 77 78 78 77 77 77 77 76 76 75 74 73 72 70 69 69 69 69 69 69 68 67 66 65 65 66 65 65 64 63 63 62 61 61 61 60 60 60 60 60 60 59 59 59 60 60 60 60 61 61 61 61 61 61 59 59 61 62 62 62 61 61 62 62 62 62 62 62 63 63 63 64 64 64 65 66 66 67 67 68
83 82 81 81 80 79 79 79 78 78 78 78 78 78 77 76 76 75 74 72 71 70 69 70 70 69 69 67 66 65 65 65 65 65 65 64 63 62 61 61 61 60 60 59 59 59 59 59 58 58 58 58 58 59 59 60 59 59 59 58 58 60 61 61 61 61 61 62 62 62 63 63 64 64 65 65 65 66 66 66 67 68 68 69 69
85 84 84 83 82 81 80 80 79 79 79 79 79 79 79 78 78 77 76 75 74 73 71 71 70 70 70 70 68 67 66 65 65 65 65 65 64 64 63 62 61 61 60 60 60 59 59 59 59 58 58 58 58 59 59 59 59 60 60 60 60 61 61 61 62 62 62 62 62 63 64 64 65 65 66 66 66 67 67 68 69 69 70 70 71
86 86 85 85 84 84 83 82 81 81 81 81 80 80 80 79 79 79 78 77 77 75 74 73 72 72 71 71 70 69 68 67 66 65 65 65 65 65 64 64 63 63 62 61 61 60 60 60 59 59 59 59 59 59 60 60 61 61 61 61 61 61 62 63 63 63 63 63 63 64 65 65 66 66 67 68 68 68 69 70 70 71 71 72 72
88 88 87 87 86 86 85 85 84 83 82 82 82 82 81 81 81 80 80 79 79 78 77 76 75 74 73 73 72 71 70 70 69 68 67 67 66 66 66 65 65 65 64 64 63 62 62 61 61 60 60 60 60 60 61 61 61 61 62 62 62 62 63 64 64 64 64 64 65 65 66 66 66 67 68 69 69 69 70 71 72 73 73 73 74
89 89 89 88 88 88 87 87 86 85 85 84 84 84 83 83 82 82 81 81 80 80 79 78 77 76 76 75 74 73 73 72 71 70 70 69 69 68 67 67 67 66 66 66 65 65 64 63 63 62 62 62 62 62 62 62 62 62 62 62 63 63 64 65 65 65 66 66 66 66 67 67 67 68 69 70 71 71 72 73 74 74 75 76 76
90 90 90 89 89 89 89 88 88 87 87 86 86 86 85 85 85 84 83 82 82 82 81 80 80 79 78 77 76 76 75 74 73 73 72 72 71 70 70 69 69 68 68 67 67 66 66 66 65 64 64 64 64 63 63 64 64 64 64 64 64 65 66 66 66 66 67 67 67 68 68 68 68 69 70 71 72 73 73 74 75 76 77 77 77
92 92 92 91 91 90 90 90 90 89 89 89 88 88 88 87 87 87 85 84 84 83 83 82 82 81 80 79 78 78 77 77 76 75 74 74 73 73 72 72 71 70 70 69 68 68 68 67 66 66 66 66 65 65 65 66 66 66 66 66 66 67 67 68 68 69 69 69 69 69 69 70 70 71 72 72 73 74 75 76 77 78 78 79 79
93 93 93 93 93 92 92 92 92 91 90 90 90 90 90 90 90 89 88 87 86 85 84 84 83 83 83 82 81 80 79 79 78 78 77 76 76 75 74 74 73 73 72 71 71 70 70 69 68 68 68 67 67 67 68 68 67 68 67 68 68 68 69 69 69 69 70 70 70 70 70 71 72 73 73 73 74 75 75 76 78 79 79 80 80
96 95 95 94 94 94 94 94 93 92 92 92 91 91 91 91 91 91 90 90 89 87 86 85 85 84 84 84 83 82 81 80 80 80 80 79 78 77 77 76 75 75 74 73 73 72 72 71 71 70 70 69 69 69 69 70 70 70 70 70 70 70 70 70 70 70 70 71 71 72 72 73 74 75 75 75 76 76 77 78 79 80 80 81 82
100 99 98 97 96 96 95 95 95 94 93 93 93 93 92 93 93 92 92 91 91 89 88 87 86 85 85 85 85 84 83 83 82 82 82 81 80 80 79 78 78 77 76 76 75 74 74 74 73 72 72 72 72 72 72 72 72 72 72 72 72 72 72 72 71 71 72 73 74 74 74 75 76 77 77 78 78 79 79 80 81 81 82 82 83
103 102 102 101 100 99 98 97 97 96 95 94 94 94 94 94 94 94 94 93 92 91 90 89 88 87 86 85 85 85 85 85 84 84 84 83 82 82 81 80 79 79 78 78 77 77 76 76 75 75 74 74 74 74 74 74 74 74 74 74 74 74 73 73 73 74 74 75 75 75 76 76 77 78 79 80 80 80 81 81 82 82 83 83 84
107 106 106 105 103 103 102 101 100 100 98 97 97 96 96 96 96 96 96 95 94 93 92 91 90 88 87 86 86 86 86 86 86 85 85 84 84 83 83 82 81 80 80 79 79 79 78 78 77 77 76 76 76 76 75 75 75 75 75 75 76 75 74 75 75 76 77 77 77 77 77 77 78 80 80 81 81 82 82 82 83 83 84 84 85
Wind_Direction
236 235 235 236 235 234 233 233 234 236 237 238 239 239 238 238 238 237 238 239 240 241 243 245 246 246 245 245 245 244 245 245 246 247 248 249 250 252 253 255 256 258 259 260 261 262 263 264 265 266 267 269 270 272 273 275 276 277 277 279 280 281 282 283 285 286 288 289 291 292 294 295 297 298 299 300 301 302 303 304 305 306 306 306 306
236 237 236 236 236 236 235 234 234 236 236 237 239 240 239 239 239 239 238 239 240 241 243 245 247 248 248 248 248 247 247 248 248 249 249 250 251 253 254 255 257 258 260 261 262 263 264 265 265 266 268 269 270 272 273 275 276 277 278 279 281 282 283 284 286 287 288 290 291 292 294 295 297 298 299 300 300 302 303 304 304 305 305 305 305
235 237 237 236 236 236 237 236 236 236 236 236 238 239 240 240 240 241 240 240 240 241 242 244 246 247 248 249 249 249 249 249 250 250 251 251 251 252 254 255 256 258 259 261 262 263 265 266 266 267 268 269 270 272 273 274 276 277 279 280 282 283 284 285 287 288 289 290 291 292 294 295 296 297 298 299 300 301 302 303 303 303 303 304 304
234 236 237 237 237 237 237 237 237 237 237 237 237 238 239 240 241 242 242 242 242 242 241 242 244 246 247 249 250 251 250 250 251 251 252 252 252 252 254 255 255 256 257 259 260 262 264 265 267 268 269 270 271 272 273 274 276 277 279 280 282 283 284 285 287 288 289 290 291 292 293 295 295 296 296 297 299 300 300 301 301 301 302 302 303
235 235 237 237 237 237 237 237 237 237 238 238 238 238 239 240 241 241 242 243 243 243 243 243 243 244 246 248 250 251 252 252 252 253 253 253 253 254 254 255 256 256 257 258 260 261 263 264 266 267 269 270 271 272 273 274 276 277 278 280 281 283 284 285 287 288 290 291 292 293 293 293 294 294 295 296 297 298 298 299 300 300 301 301 301
237 236 237 237 237 237 237 237 239 238 238 239 239 240 240 240 241 241 241 242 242 243 244 244 244 244 245 247 248 250 252 253 254 254 254 254 255 255 256 257 258 258 258 259 261 262 263 264 266 267 269 270 271 272 273 275 276 277 278 280 281 283 284 285 286 288 289 291 291 292 292 292 292 293 294 295 295 296 297 298 298 299 299 300 300
240 238 237 238 238 237 237 237 239 240 240 240 240 240 242 242 241 242 242 243 243 243 244 245 245 245 245 246 247 248 250 252 253 254 255 256 257 258 258 259 260 261 262 262 263 264 265 266 267 268 269 271 272 273 274 276 277 278 279 280 281 282 284 285 286 287 288 289 289 289 290 290 290 291 292 293 293 294 295 296 296 297 297 298 298
244 241 238 238 239 238 238 239 239 240 241 241 242 241 242 243 242 243 243 244 245 245 245 246 246 246 246 247 247 248 249 250 252 254 255 256 258 259 259 260 261 262 264 265 265 266 267 268 268 270 271 272 273 274 275 276 278 279 280 281 281 282 283 285 285 286 287 286 286 286 287 288 289 289 289 290 292 293 294 294 294 294 295 296 297
246 240 238 237 238 239 238 240 240 241 242 243 243 243 243 243 243 244 244 245 245 246 246 247 248 248 248 248 248 249 249 250 251 252 254 255 256 258 259 260 261 262 264 265 266 267 267 268 269 270 271 272 273 274 275 276 277 279 280 281 282 283 283 284 285 285 285 284 282 282 284 286 287 287 287 288 290 291 292 292 292 293 294 295 295
247 239 240 237 235 239 239 240 241 241 244 244 245 245 245 244 244 245 244 245 245 246 246 247 248 249 249 249 249 250 251 251 252 252 253 254 254 255 257 258 260 261 263 264 265 266 266 267 269 270 270 271 272 273 275 276 277 278 279 281 282 283 283 283 284 284 283 282 281 280 280 282 284 284 284 286 289 291 291 291 292 293 294 294 294
247 246 247 240 235 238 238 239 240 242 244 244 245 245 245 245 245 245 245 245 246 246 246 246 247 249 251 252 252 252 253 253 254 254 255 255 256 257 258 258 260 261 263 264 264 265 266 267 268 269 270 271 272 273 274 275 277 278 279 281 282 282 283 282 283 283 282 281 281 279 279 279 280 279 281 283 287 289 290 291 292 292 293 293 293
243 245 245 238 236 240 240 241 242 243 244 242 243 244 244 244 244 245 245 245 246 246 247 247 248 249 251 253 253 254 255 256 256 256 257 257 258 260 261 262 263 263 264 264 265 266 267 268 269 270 271 272 273 274 275 276 277 278 279 280 281 281 282 282 282 282 282 281 281 280 279 278 278 278 278 280 283 286 289 290 291 291 292 292 293
237 238 236 234 240 245 240 239 241 243 244 243 242 244 244 243 242 245 246 245 246 247 247 248 248 249 250 251 253 253 254 256 257 258 259 260 260 261 262 264 264 264 265 265 266 267 268 269 270 271 272 272 274 275 275 276 277 278 279 279 280 280 281 281 282 282 282 282 282 281 280 280 279 278 277 278 279 283 288 290 291 291 292 292 293
229 229 230 231 240 244 235 232 236 237 239 241 241 243 244 244 243 245 247 247 246 247 247 248 249 249 250 250 252 254 255 256 257 258 259 260 261 261 262 263 264 264 265 266 267 268 269 269 270 271 272 273 274 275 276 277 277 278 279 279 280 279 279 280 280 280 281 281 280 280 281 282 281 279 279 278 279 282 287 289 290 291 292 293 293
232 227 227 231 238 239 230 227 228 227 231 236 237 239 242 245 245 245 247 247 246 246 247 248 249 249 250 251 252 254 255 256 257 258 258 259 260 261 261 262 263 264 265 266 267 268 269 269 270 271 272 273 274 275 276 277 277 278 279 279 279 279 279 280 281 280 280 281 281 281 282 282 283 282 281 280 280 283 286 288 290 291 292 292 292
243 234 229 232 237 235 226 224 225 225 229 230 231 235 236 240 244 245 246 246 245 245 247 248 249 250 251 251 252 254 255 256 257 258 258 259 259 260 261 261 262 262 263 265 266 267 268 269 270 271 272 273 273 274 275 275 276 277 278 279 279 279 280 281 281 281 281 281 282 282 282 283 284 284 283 283 284 286 288 290 290 291 291 291 291
246 242 235 231 233 230 222 223 225 227 230 229 229 233 233 235 240 243 244 245 245 245 247 248 249 250 252 252 252 254 255 256 257 257 258 259 259 260 261 261 262 262 263 264 265 266 267 268 269 270 271 272 272 273 274 274 275 275 276 276 277 277 279 280 280 281 281 281 281 282 283 283 284 284 285 286 287 288 290 290 290 290 290 290 291
239 238 236 231 227 223 218 217 219 222 228 230 230 232 233 234 238 242 243 244 247 249 249 251 252 251 252 253 255 255 256 256 256 257 258 259 260 260 261 262 262 263 264 264 265 266 267 268 269 270 270 272 272 273 273 274 275 276 275 275 275 275 276 277 278 279 279 280 280 280 280 281 282 283 285 286 287 289 290 290 290 290 290 290 291
234 231 233 232 227 221 213 212 217 223 229 231 231 233 235 235 235 239 244 246 248 251 252 253 256 256 254 254 256 257 257 257 257 258 259 259 260 261 261 262 263 263 264 265 265 266 267 268 269 269 270 271 272 272 273 273 273 274 274 274 275 275 276 277 278 278 279 280 280 279 280 280 281 282 284 285 287 289 290 290 291 291 291 291 292
234 233 233 232 230 227 221 225 236 240 240 237 234 234 236 237 238 239 244 248 250 251 252 254 257 259 259 257 255 256 257 258 258 258 259 260 260 261 262 262 263 263 264 265 266 267 267 268 269 269 270 271 272 273 273 273 273 274 275 276 276 276 277 278 279 279 280 280 280 280 280 280 281 282 284 286 287 287 288 289 290 290 291 292 292
237 237 238 237 235 235 233 237 243 245 243 241 240 238 236 237 240 241 242 247 250 252 254 255 257 258 261 261 258 256 256 257 258 259 260 260 261 261 262 263 263 263 264 265 266 267 268 269 270 271 272 272 273 273 274 274 275 276 276 277 276 276 278 278 279 279 280 280 279 280 280 281 282 284 285 285 285 285 287 288 289 290 290 291 291
243 243 243 244 242 241 240 240 243 245 244 243 242 240 238 238 240 242 242 244 248 251 254 256 257 256 257 259 260 259 259 257 257 259 260 260 261 261 262 263 263 263 264 265 266 268 269 270 271 272 273 274 274 275 275 276 276 276 277 277 277 277 277 277 278 279 279 278 278 279 281 282 283 283 283 283 283 284 286 288 288 289 289 290 291
248 247 247 247 247 247 246 246 248 249 248 248 246 243 241 240 240 242 243 243 244 247 251 254 256 256 255 256 257 258 261 262 260 259 258 259 260 261 261 262 263 264 264 265 266 267 268 270 271 272 273 274 274 275 276 277 277 276 277 278 279 279 279 279 279 279 278 278 278 279 280 281 282 282 283 283 283 284 286 287 288 290 291 292 293
248 248 248 248 248 249 250 251 252 251 250 249 248 246 244 243 242 241 241 241 241 243 247 250 254 256 255 255 256 255 257 260 261 260 259 259 259 260 260 261 262 263 264 264 266 267 268 269 271 272 273 273 273 274 275 276 276 277 278 278 279 280 280 280 279 279 279 280 280 281 282 283 284 285 285 285 286 287 287 288 290 291 293 293 294
244 245 246 247 247 248 250 251 250 250 248 246 244 244 243 242 242 241 239 239 239 240 241 244 248 252 253 254 255 254 254 255 257 259 260 261 260 259 259 260 261 261 262 263 264 265 266 268 270 271 272 272 273 274 274 275 276 277 278 278 279 279 279 279 278 279 281 282 283 285 286 286 287 288 288 288 289 289 289 290 291 292 293 293 293
241 242 243 243 243 244 246 248 246 244 244 243 242 241 240 239 240 239 239 239 238 238 238 239 242 244 246 247 248 250 251 252 254 256 259 260 259 258 259 260 261 261 261 261 262 264 265 266 268 270 271 271 272 273 274 275 276 277 278 279 279 279 279 279 280 281 283 284 286 286 286 286 286 287 287 287 287 287 288 289 290 291 291 291 292
242 242 241 241 240 240 241 242 242 241 240 240 239 238 237 237 238 239 238 237 236 236 236 237 237 238 239 240 242 245 246 247 249 252 255 256 255 257 260 261 262 264 264 264 264 265 265 266 269 270 270 270 270 271 272 273 274 275 277 278 280 281 280 280 282 283 284 285 285 285 284 284 283 283 283 283 283 285 286 287 288 288 288 289 289
247 246 244 242 241 240 239 239 240 240 239 238 237 236 236 237 238 239 238 237 236 235 235 236 236 237 237 237 239 242 243 244 246 248 250 251 252 256 261 262 264 266 267 266 265 265 265 266 268 270 270 270 269 268 268 269 272 274 276 278 279 280 280 279 280 282 283 283 283 282 281 280 279 278 278 279 280 281 282 283 283 284 285 286 287
252 251 250 247 245 243 242 241 240 240 240 239 238 238 237 237 237 238 238 237 237 238 239 239 239 239 239 240 241 242 244 244 245 245 246 248 251 256 261 263 264 265 265 264 264 265 266 266 267 268 269 270 270 269 270 272 274 276 277 278 278 278 278 277 278 279 279 279 279 278 276 275 274 274 274 275 276 277 278 279 280 282 284 286 288
256 255 254 253 252 249 247 245 243 242 242 241 241 241 240 239 238 238 238 238 239 241 242 243 243 243 243 244 245 245 246 246 246 246 247 249 252 255 259 261 263 263 263 263 264 265 267 267 267 268 268 270 271 272 273 275 276 276 277 277 277 276 275 275 274 274 273 273 273 272 271 270 270 270 270 271 273 274 276 279 281 284 287 289 292
258 258 258 257 257 256 254 252 250 248 246 245 245 244 244 243 243 242 241 241 242 243 244 244 245 245 245 245 245 246 246 247 247 248 250 251 252 253 254 256 258 258 258 259 261 264 265 266 267 268 268 269 271 272 273 273 274 274 274 274 273 272 270 269 267 266 266 265 265 265 265 265 266 267 269 271 274 277 280 283 286 289 291 293 295
258 258 259 259 259 259 259 258 257 255 253 251 250 249 247 247 247 246 246 245 245 246 247 246 246 246 246 246 246 246 246 247 248 248 250 251 251 251 251 251 252 253 254 255 257 259 261 263 264 265 266 267 267 268 268 268 268 268 268 268 267 265 264 263 262 262 262 262 262 263 265 266 267 269 271 275 279 282 285 288 291 293 294 295 296
256 257 258 258 259 259 260 260 260 260 259 257 256 254 253 251 250 249 249 249 249 249 250 250 249 248 248 249 249 248 247 247 247 247 247 247 248 249 249 249 250 251 252 253 254 255 257 258 259 260 262 263 263 263 262 262 262 261 261 261 260 260 260 260 260 261 262 264 265 267 269 271 274 276 278 281 284 287 289 292 293 295 295 296 296
255 255 256 257 258 258 259 259 260 260 261 260 260 259 258 257 255 254 253 252 252 252 252 253 253 252 252 252 252 252 252 251 249 248 248 248 248 247 248 249 250 251 252 252 253 253 253 254 255 257 257 258 259 259 259 259 259 259 259 259 259 259 260 262 263 265 266 269 271 273 275 278 280 283 285 287 289 290 292 294 295 296 296 296 297
253 254 255 255 256 257 257 258 259 259 260 260 260 260 261 261 260 259 259 257 257 256 256 256 257 256 256 256 257 257 257 257 256 255 254 253 253 252 251 251 252 253 254 255 255 254 254 254 255 257 257 258 258 259 259 260 261 261 261 262 263 264 265 267 269 271 273 275 277 279 281 283 285 287 289 290 292 293 294 295 295 296 296 296 296
253 253 253 254 255 255 256 257 257 258 259 259 259 259 259 260 261 261 262 262 262 261 261 261 261 261 261 261 261 262 262 262 262 262 261 261 260 259 258 258 258 258 259 260 260 260 259 259 260 261 263 264 264 264 265 266 266 267 267 268 270 271 273 274 275 276 278 280 282 283 285 286 288 289 290 291 292 293 294 295 295 295 295 295 295
253 252 252 253 254 254 255 255 256 256 257 258 258 258 258 259 259 259 260 262 263 263 264 264 264 264 264 264 264 265 265 265 266 266 266 266 266 266 265 265 265 265 265 266 266 266 266 266 266 267 268 270 271 271 271 271 272 273 274 274 275 276 277 278 279 280 281 283 284 286 287 288 289 290 290 291 292 292 293 294 294 294 294 294 294
253 253 253 252 253 253 254 254 254 255 256 256 257 258 258 258 258 258 258 259 260 262 263 264 264 265 265 265 265 266 266 267 267 268 269 269 269 269 269 269 269 269 269 269 270 270 270 270 270 270 271 272 273 273 274 274 275 275 276 278 278 279 279 281 281 282 283 284 285 286 287 288 288 289 290 290 291 291 292 292 292 292 292 292 292
253 253 253 253 252 252 253 253 254 254 254 255 256 257 257 258 258 258 258 258 258 258 260 261 263 263 264 264 264 265 265 266 267 267 268 269 269 270 270 270 270 270 271 271 271 272 272 272 272 272 272 272 273 274 274 275 276 276 277 277 277 278 280 281 282 282 283 283 284 285 286 287 287 288 289 289 290 290 291 291 291 291 291 291 291
253 253 254 254 253 253 252 253 253 254 254 254 255 255 256 257 257 257 258 258 258 257 258 258 259 261 262 263 263 263 263 264 265 265 266 267 268 268 269 269 269 270 270 270 271 271 271 272 272 272 272 272 272 273 273 274 274 275 274 274 274 276 278 279 279 280 281 282 283 284 284 285 285 286 287 287 288 289 290 289 289 290 290 290 291
252 253 253 253 253 253 253 253 253 253 253 253 253 254 255 255 256 257 257 257 257 258 258 258 258 258 259 260 261 262 262 262 263 263 264 265 266 267 267 268 268 268 269 269 269 270 270 270 271 271 271 271 271 271 272 272 272 272 273 273 274 275 276 277 278 279 280 281 281 282 282 283 284 285 286 287 287 288 288 288 289 289 289 290 291
251 252 252 252 252 253 253 253 253 253 253 253 253 253 253 254 254 255 256 256 257 257 258 258 258 258 258 258 259 260 261 262 262 263 263 263 264 265 266 266 267 267 268 268 268 269 269 269 269 269 270 270 270 270 270 271 271 272 273 273 274 275 275 276 277 278 279 279 280 280 281 282 283 285 285 286 287 287 287 288 288 288 289 290 290
251 251 251 251 252 252 252 253 253 253 253 253 253 253 253 253 253 254 254 255 256 256 256 257 258 258 258 259 259 259 259 260 260 261 262 263 263 264 264 265 266 267 267 268 268 269 269 269 269 269 269 269 269 270 270 270 271 271 272 272 273 274 275 275 277 277 278 278 279 280 281 282 283 284 284 285 285 286 286 287 287 288 289 289 290
250 250 250 250 251 251 251 252 252 252 253 253 253 253 253 253 253 253 253 254 255 255 255 256 256 257 258 258 259 259 259 259 259 260 260 261 262 263 263 264 264 265 266 266 267 268 268 269 269 269 269 269 270 270 270 271 271 271 272 272 273 273 274 275 276 276 277 278 279 280 281 281 282 283 283 284 284 285 286 286 287 288 289 290 291
249 249 250 250 250 250 250 251 251 251 252 252 253 253 253 253 253 253 253 253 253 254 255 255 256 256 256 257 258 258 258 259 259 259 259 260 261 261 262 262 263 263 264 265 265 266 267 268 268 269 269 269 270 270 270 270 271 271 272 272 273 273 274 275 275 276 277 277 278 279 280 280 281 281 282 283 284 285 285 286 287 287 288 289 291
249 249 249 249 249 249 250 250 250 250 251 252 252 252 253 253 253 253 253 253 252 253 254 254 255 255 256 256 256 257 258 258 258 258 259 259 260 260 261 261 262 263 263 264 264 264 265 266 266 267 268 269 269 270 270 270 270 271 271 271 272 272 273 274 275 275 276 277 278 279 279 280 280 281 281 282 283 284 285 286 286 287 289 290 291
249 249 249 249 249 249 249 250 250 250 250 251 251 252 252 253 253 253 253 253 253 253 253 253 254 254 255 255 256 256 256 257 258 258 258 258 259 260 260 261 261 262 262 263 263 264 264 265 265 266 266 267 268 268 269 269 270 270 270 271 271 272 273 274 274 275 276 277 278 279 279 280 280 281 281 282 283 284 285 286 287 289 290 291 292
249 249 249 249 249 249 249 249 249 249 250 250 251 251 252 252 253 253 253 253 253 253 253 253 253 254 254 255 255 256 256 256 257 258 258 258 258 259 259 260 260 261 261 262 262 263 263 264 264 265 265 266 266 267 268 268 269 270 270 271 271 272 273 274 275 276 276 277 278 279 280 280 281 282 283 283 284 286 287 287 288 289 290 291 292
249 249 249 249 249 249 249 249 249 249 249 250 250 251 251 251 252 252 253 253 253 253 253 253 253 253 254 254 255 256 256 256 256 257 257 258 258 258 259 259 260 260 261 261 262 262 263 263 264 264 265 265 266 267 267 268 269 270 271 271 272 272 273 274 275 276 276 277 278 279 280 281 282 283 283 284 285 286 287 287 288 289 290 291 292
249 249 249 249 249 249 249 249 249 249 249 249 250 250 250 251 251 251 252 252 253 253 253 253 253 253 253 254 254 255 255 256 256 256 256 257 257 258 258 259 259 260 260 261 261 262 262 263 264 264 265 265 266 267 267 268 269 269 270 271 271 272 273 274 274 275 276 276 277 278 280 280 281 282 283 284 285 286 287 288 289 289 290 291 291
250 250 250 250 249 249 249 249 249 249 249 249 249 250 250 251 251 251 251 252 252 252 252 252 252 253 253 253 254 254 255 255 256 256 256 257 257 257 258 258 259 260 260 261 261 262 262 263 263 264 265 265 266 267 267 268 268 269 269 270 271 272 273 273 274 275 275 276 277 278 279 280 281 282 283 284 286 287 287 288 289 290 290 291 291
Height
5811 5811 5812 5814 5815 5816 5817 5819 5820 5822 5824 5825 5826 5827 5827 5828 5830 5831 5832 5833 5834 5836 5837 5838 5839 5841 5842 5842 5843 5844 5846 5847 5848 5849 5850 5851 5852 5852 5853 5853 5854 5854 5855 5855 5855 5855 5856 5856 5856 5856 5856 5856 5856 5856 5856 5856 5856 5856 5856 5855 5855 5854 5853 5853 5852 5852 5851 5851 5850 5849 5848 5848 5847 5846 5845 5844 5843 5842 5841 5840 5839 5838 5836 5835 5834
5806 5808 5809 5811 5812 5813 5814 5815 5816 5818 5820 5822 5823 5824 5825 5826 5827 5828 5829 5830 5831 5833 5834 5835 5836 5837 5838 5839 5840 5841 5843 5844 5845 5846 5847 5848 5849 5849 5849 5850 5851 5851 5851 5852 5852 5852 5852 5852 5853 5853 5853 5853 5853 5853 5853 5853 5853 5852 5852 5852 5852 5851 5850 5850 5849 5848 5848 5847 5847 5846 5845 5844 5844 5843 5842 5841 5840 5839 5837 5836 5835 5834 5833 5832 5830
5801 5803 5805 5807 5808 5809 5811 5812 5813 5814 5816 5818 5819 5820 5822 5823 5824 5825 5826 5827 5828 5829 5831 5832 5833 5834 5835 5836 5837 5838 5839 5840 5841 5842 5843 5844 5845 5846 5846 5847 5848 5848 5848 5849 5849 5849 5849 5849 5849 5849 5850 5850 5850 5850 5849 5849 5849 5849 5849 5848 5848 5848 5847 5847 5846 5845 5844 5844 5843 5843 5842 5841 5840 5839 5838 5837 5836 5835 5834 5833 5832 5831 5829 5828 5827
5796 5798 5801 5803 5804 5805 5807 5808 5809 5810 5812 5813 5814 5815 5818 5819 5820 5821 5823 5824 5825 5826 5827 5828 5829 5830 5831 5832 5833 5834 5836 5837 5838 5839 5839 5840 5841 5843 5843 5843 5844 5845 5845 5845 5846 5846 5846 5846 5846 5846 5846 5846 5846 5846 5846 5846 5846 5845 5845 5845 5844 5844 5844 5843 5843 5842 5841 5840 5840 5839 5838 5837 5836 5835 5834 5833 5832 5831 5830 5829 5828 5827 5826 5825 5823
5792 5794 5796 5798 5800 5801 5802 5804 5805 5806 5807 5809 5810 5812 5813 5815 5816 5818 5819 5821 5822 5822 5823 5824 5825 5826 5827 5828 5829 5830 5832 5833 5834 5835 5836 5836 5837 5839 5840 5840 5840 5841 5841 5842 5842 5842 5842 5842 5843 5843 5843 5843 5842 5842 5842 5842 5842 5842 5841 5841 5841 5840 5840 5839 5839 5838 5838 5837 5835 5835 5834 5833 5832 5831 5830 5830 5829 5827 5826 5825 5824 5823 5822 5821 5819
5789 5790 5792 5794 5795 5796 5797 5799 5800 5802 5803 5804 5806 5808 5809 5810 5812 5814 5815 5817 5818 5819 5819 5820 5821 5822 5823 5824 5825 5826 5827 5829 5829 5830 5831 5832 5834 5835 5836 5836 5836 5836 5837 5838 5838 5838 5838 5839 5839 5839 5839 5839 5839 5838 5838 5838 5838 5837 5837 5837 5837 5836 5836 5835 5835 5835 5834 5833 5832 5831 5830 5829 5828 5827 5826 5826 5825 5823 5822 5821 5820 5819 5818 5816 5815
5785 5785 5787 5788 5790 5791 5793 5794 5796 5797 5799 5800 5802 5804 5805 5806 5808 5809 5811 5813 5813 5814 5815 5816 5817 5818 5819 5820 5821 5822 5823 5824 5825 5826 5827 5828 5830 5831 5832 5832 5832 5832 5833 5834 5834 5834 5834 5835 5835 5835 5835 5835 5835 5835 5834 5834 5834 5833 5833 5833 5832 5832 5832 5831 5831 5831 5830 5829 5828 5826 5825 5824 5824 5823 5822 5821 5820 5819 5818 5817 5816 5815 5813 5812 5811
5779 5780 5781 5783 5785 5787 5788 5789 5791 5792 5794 5796 5798 5799 5800 5801 5803 5805 5807 5808 5809 5810 5811 5812 5813 5814 5815 5816 5817 5817 5819 5820 5820 5821 5823 5824 5825 5826 5827 5828 5828 5829 5829 5829 5830 5830 5830 5830 5831 5831 5831 5831 5831 5831 5830 5830 5830 5829 5828 5828 5828 5827 5827 5826 5826 5826 5826 5825 5824 5822 5821 5820 5819 5819 5818 5817 5816 5815 5814 5812 5811 5810 5809 5808 5806
5773 5774 5775 5777 5780 5782 5784 5785 5786 5788 5789 5791 5793 5795 5796 5797 5798 5801 5803 5804 5804 5805 5807 5808 5808 5809 5810 5812 5812 5813 5814 5815 5816 5817 5818 5819 5820 5821 5822 5823 5823 5824 5825 5825 5825 5826 5826 5826 5826 5826 5827 5827 5826 5826 5826 5826 5825 5825 5824 5823 5823 5822 5822 5821 5821 5821 5821 5821 5820 5818 5817 5816 5815 5814 5813 5812 5811 5810 5809 5807 5806 5805 5804 5803 5801
5768 5770 5771 5773 5776 5778 5779 5780 5781 5783 5785 5787 5789 5790 5791 5792 5794 5796 5798 5799 5799 5800 5801 5802 5803 5804 5805 5807 5808 5809 5810 5811 5811 5812 5813 5814 5815 5816 5817 5817 5818 5819 5820 5821 5821 5821 5821 5821 5821 5821 5821 5821 5821 5821 5821 5821 5820 5820 5819 5818 5817 5817 5816 5816 5815 5816 5815 5815 5815 5814 5813 5812 5811 5809 5808 5807 5806 5805 5803 5801 5801 5800 5799 5798 5796
5765 5766 5767 5769 5772 5773 5774 5775 5777 5778 5780 5782 5783 5784 5785 5787 5788 5790 5792 5792 5793 5794 5795 5796 5798 5799 5800 5802 5804 5804 5805 5806 5807 5808 5808 5809 5810 5811 5812 5813 5814 5815 5815 5815 5815 5815 5816 5816 5816 5816 5816 5816 5816 5816 5816 5816 5815 5815 5814 5813 5812 5811 5810 5810 5810 5810 5810 5809 5810 5809 5808 5808 5807 5805 5804 5803 5801 5799 5797 5796 5796 5795 5793 5792 5791
5760 5762 5763 5765 5766 5767 5768 5770 5771 5772 5774 5775 5776 5778 5779 5781 5782 5784 5785 5786 5787 5788 5790 5791 5792 5794 5795 5796 5798 5800 5800 5800 5801 5803 5803 5805 5806 5807 5807 5808 5809 5810 5810 5810 5810 5810 5810 5810 5811 5811 5811 5810 5810 5811 5811 5810 5810 5809 5809 5808 5808 5806 5805 5804 5804 5804 5804 5803 5803 5803 5803 5803 5801 5800 5799 5798 5796 5794 5793 5792 5790 5789 5788 5787 5785
5754 5755 5758 5760 5761 5761 5762 5762 5764 5766 5768 5769 5770 5772 5773 5774 5776 5777 5778 5779 5782 5783 5784 5785 5786 5788 5790 5791 5791 5793 5794 5795 5796 5797 5798 5800 5801 5802 5803 5804 5804 5805 5804 5804 5805 5805 5805 5805 5805 5805 5805 5805 5805 5805 5805 5805 5804 5804 5804 5804 5803 5802 5800 5799 5799 5798 5798 5797 5797 5796 5797 5797 5796 5795 5794 5792 5791 5789 5788 5787 5785 5784 5782 5781 5780
5748 5749 5750 5753 5754 5754 5755 5756 5759 5761 5763 5764 5765 5766 5767 5769 5770 5771 5772 5773 5776 5777 5778 5779 5781 5782 5784 5784 5785 5787 5788 5789 5790 5791 5793 5794 5795 5796 5797 5798 5798 5798 5798 5799 5799 5799 5799 5799 5800 5799 5799 5799 5799 5799 5799 5799 5799 5798 5798 5798 5798 5797 5796 5795 5794 5794 5793 5792 5790 5790 5791 5790 5788 5788 5787 5786 5785 5785 5784 5782 5780 5778 5777 5776 5774
5743 5743 5744 5746 5746 5746 5747 5749 5752 5754 5756 5758 5761 5761 5763 5764 5765 5765 5765 5767 5770 5771 5772 5773 5775 5776 5777 5778 5780 5781 5781 5783 5784 5785 5786 5788 5789 5789 5791 5791 5792 5792 5793 5793 5793 5794 5793 5793 5794 5794 5793 5793 5794 5794 5794 5793 5793 5793 5793 5792 5792 5791 5790 5790 5790 5789 5788 5787 5784 5784 5785 5784 5782 5781 5779 5778 5779 5779 5779 5777 5775 5773 5771 5770 5769
5737 5738 5739 5741 5741 5741 5742 5742 5745 5747 5749 5752 5755 5756 5757 5758 5758 5759 5759 5760 5763 5765 5766 5767 5768 5769 5770 5773 5774 5774 5775 5778 5778 5779 5780 5781 5782 5782 5783 5785 5785 5786 5786 5787 5787 5787 5787 5788 5788 5788 5787 5787 5788 5788 5788 5787 5788 5788 5788 5787 5786 5786 5785 5785 5785 5784 5783 5782 5779 5777 5778 5777 5775 5774 5772 5771 5771 5772 5772 5770 5769 5767 5766 5764 5763
5730 5731 5733 5735 5737 5737 5737 5736 5738 5740 5743 5745 5748 5750 5751 5752 5752 5752 5753 5754 5756 5758 5760 5761 5763 5764 5765 5766 5767 5768 5770 5772 5772 5772 5773 5774 5775 5776 5777 5778 5779 5779 5780 5781 5781 5781 5782 5782 5782 5782 5781 5781 5781 5782 5782 5781 5782 5783 5782 5782 5781 5780 5780 5779 5780 5779 5778 5777 5775 5773 5772 5770 5768 5766 5765 5764 5764 5765 5764 5763 5762 5761 5759 5758 5756
5723 5724 5726 5729 5731 5732 5733 5732 5731 5734 5736 5739 5741 5743 5744 5746 5746 5745 5746 5748 5750 5752 5754 5755 5756 5758 5759 5760 5761 5763 5764 5765 5765 5766 5767 5768 5769 5770 5771 5772 5772 5773 5773 5774 5775 5775 5775 5775 5775 5775 5775 5775 5775 5775 5776 5776 5776 5776 5776 5775 5774 5774 5774 5774 5774 5774 5772 5770 5769 5767 5766 5765 5763 5761 5760 5758 5758 5757 5757 5756 5755 5753 5752 5751 5749
5718 5719 5719 5722 5725 5727 5727 5725 5725 5729 5731 5732 5734 5736 5737 5739 5740 5740 5740 5741 5744 5746 5748 5749 5748 5749 5752 5755 5756 5757 5757 5757 5759 5760 5760 5761 5762 5763 5764 5765 5765 5766 5767 5767 5768 5768 5768 5768 5768 5768 5768 5769 5768 5768 5769 5770 5770 5769 5768 5768 5768 5768 5768 5768 5768 5768 5766 5764 5762 5761 5760 5759 5758 5756 5755 5753 5752 5751 5750 5748 5747 5746 5744 5743 5742
5712 5713 5714 5716 5718 5721 5721 5717 5717 5722 5725 5726 5728 5730 5731 5732 5733 5735 5734 5735 5737 5739 5741 5742 5742 5741 5743 5748 5751 5750 5749 5750 5751 5753 5754 5754 5756 5757 5758 5758 5758 5759 5760 5760 5761 5761 5761 5761 5761 5761 5761 5762 5762 5762 5762 5762 5763 5763 5762 5761 5761 5761 5761 5761 5761 5761 5760 5758 5755 5754 5753 5752 5752 5751 5750 5749 5747 5746 5744 5743 5741 5739 5738 5736 5735
5704 5705 5708 5710 5711 5713 5714 5713 5712 5715 5718 5720 5722 5723 5725 5725 5727 5729 5729 5729 5730 5733 5735 5736 5736 5736 5736 5740 5743 5742 5741 5743 5744 5745 5746 5748 5749 5751 5751 5751 5751 5753 5754 5754 5754 5754 5754 5755 5755 5755 5755 5755 5755 5755 5755 5755 5757 5756 5755 5754 5754 5754 5754 5754 5754 5754 5753 5750 5748 5747 5746 5745 5745 5745 5744 5743 5741 5740 5738 5737 5735 5733 5732 5730 5728
5695 5697 5699 5702 5703 5705 5707 5707 5707 5709 5711 5713 5715 5716 5718 5719 5720 5722 5723 5724 5724 5725 5728 5729 5730 5731 5731 5733 5736 5733 5732 5736 5738 5738 5739 5740 5742 5744 5744 5744 5744 5746 5747 5748 5748 5748 5748 5748 5748 5748 5748 5748 5748 5748 5747 5748 5749 5749 5748 5746 5746 5746 5747 5747 5747 5747 5745 5743 5742 5741 5740 5739 5739 5738 5737 5735 5734 5733 5731 5730 5728 5726 5725 5723 5722
5686 5688 5690 5693 5695 5697 5698 5700 5702 5703 5705 5706 5708 5709 5711 5712 5714 5715 5716 5717 5718 5719 5721 5721 5722 5724 5725 5726 5728 5727 5725 5728 5730 5731 5732 5733 5734 5736 5737 5737 5737 5739 5740 5741 5741 5741 5741 5741 5742 5742 5742 5742 5741 5741 5740 5740 5741 5741 5741 5740 5739 5738 5738 5739 5739 5738 5737 5735 5735 5734 5733 5732 5731 5730 5729 5727 5726 5726 5724 5722 5721 5719 5717 5716 5714
5678 5680 5682 5684 5686 5688 5690 5692 5694 5696 5698 5699 5701 5702 5704 5705 5706 5707 5708 5709 5711 5713 5715 5715 5715 5717 5718 5719 5720 5720 5719 5720 5722 5723 5724 5725 5727 5728 5728 5729 5730 5731 5733 5733 5734 5734 5735 5734 5734 5735 5735 5735 5735 5734 5734 5734 5734 5734 5734 5733 5732 5731 5731 5731 5730 5729 5728 5727 5727 5726 5726 5725 5723 5722 5721 5720 5719 5718 5717 5715 5714 5712 5710 5708 5706
5669 5671 5672 5675 5677 5679 5681 5684 5686 5688 5690 5692 5694 5695 5697 5697 5698 5699 5700 5702 5703 5705 5707 5708 5709 5710 5711 5711 5712 5712 5712 5713 5714 5715 5716 5717 5719 5720 5720 5721 5723 5724 5725 5726 5727 5728 5728 5728 5727 5728 5728 5728 5728 5728 5727 5727 5727 5727 5726 5726 5725 5724 5723 5722 5723 5723 5721 5720 5720 5719 5718 5717 5716 5714 5713 5712 5711 5710 5709 5707 5706 5705 5703 5701 5700
5661 5663 5664 5666 5668 5670 5672 5675 5677 5679 5681 5683 5685 5687 5689 5690 5691 5692 5693 5694 5696 5697 5698 5700 5702 5704 5704 5704 5703 5703 5704 5706 5707 5709 5709 5710 5711 5712 5713 5715 5716 5717 5718 5719 5720 5720 5720 5720 5721 5721 5721 5721 5721 5721 5721 5721 5721 5720 5719 5718 5717 5717 5716 5715 5715 5716 5715 5714 5713 5712 5711 5710 5709 5708 5707 5705 5704 5703 5702 5700 5699 5698 5696 5695 5693
5652 5654 5656 5658 5660 5661 5663 5665 5668 5670 5672 5674 5675 5677 5680 5682 5684 5685 5686 5688 5689 5690 5691 5693 5694 5696 5697 5697 5697 5697 5698 5699 5701 5703 5703 5703 5704 5705 5706 5708 5709 5709 5710 5710 5711 5712 5712 5713 5714 5714 5714 5714 5714 5714 5714 5714 5714 5714 5712 5712 5711 5710 5710 5708 5707 5708 5708 5707 5707 5706 5705 5704 5703 5702 5700 5699 5698 5697 5695 5694 5693 5692 5690 5689 5688
5643 5645 5648 5650 5652 5653 5655 5657 5659 5661 5663 5665 5666 5668 5670 5672 5675 5677 5679 5681 5682 5683 5684 5686 5686 5687 5689 5690 5690 5691 5692 5693 5694 5695 5695 5695 5696 5698 5699 5700 5702 5702 5702 5703 5703 5704 5705 5706 5706 5707 5707 5707 5707 5707 5707 5707 5707 5707 5706 5706 5705 5704 5704 5703 5702 5701 5701 5700 5700 5700 5699 5697 5696 5695 5694 5692 5691 5690 5689 5688 5687 5686 5684 5683 5682
5635 5637 5639 5641 5643 5645 5647 5648 5650 5652 5655 5656 5658 5659 5661 5663 5665 5668 5670 5672 5674 5675 5677 5678 5679 5680 5681 5682 5683 5684 5685 5686 5687 5687 5687 5688 5689 5691 5691 5692 5693 5695 5695 5696 5695 5696 5697 5698 5699 5699 5700 5699 5699 5700 5700 5700 5700 5700 5699 5699 5698 5698 5697 5696 5695 5694 5694 5693 5693 5693 5692 5691 5690 5689 5688 5687 5685 5684 5683 5682 5682 5680 5679 5677 5676
5627 5629 5630 5632 5634 5636 5638 5640 5642 5644 5646 5648 5649 5651 5652 5654 5656 5658 5661 5663 5665 5666 5668 5670 5671 5672 5674 5675 5676 5677 5678 5679 5680 5680 5680 5682 5682 5683 5684 5684 5685 5686 5687 5687 5687 5688 5690 5690 5691 5691 5692 5692 5692 5692 5692 5692 5692 5692 5691 5691 5691 5691 5690 5689 5688 5687 5687 5687 5686 5686 5686 5685 5684 5683 5683 5681 5679 5678 5677 5676 5675 5674 5672 5670 5669
5619 5620 5622 5624 5625 5627 5629 5631 5633 5635 5637 5639 5640 5642 5643 5645 5647 5649 5651 5654 5655 5657 5659 5660 5662 5664 5666 5667 5668 5670 5671 5672 5672 5673 5673 5674 5675 5676 5676 5677 5678 5678 5678 5679 5679 5680 5681 5682 5682 5682 5683 5684 5684 5683 5684 5684 5684 5683 5684 5684 5684 5683 5683 5682 5681 5680 5680 5680 5679 5679 5678 5678 5677 5676 5676 5675 5672 5672 5671 5669 5668 5667 5665 5663 5661
5611 5612 5614 5616 5617 5618 5620 5622 5624 5626 5628 5630 5631 5633 5635 5636 5638 5639 5641 5644 5646 5647 5649 5651 5653 5655 5657 5659 5660 5662 5663 5664 5665 5666 5666 5667 5668 5669 5669 5670 5671 5670 5670 5671 5672 5673 5673 5674 5674 5674 5675 5675 5676 5676 5676 5676 5676 5676 5676 5677 5677 5676 5676 5675 5674 5673 5673 5673 5672 5671 5671 5670 5669 5669 5669 5668 5666 5665 5664 5663 5661 5660 5658 5656 5654
5604 5605 5606 5608 5609 5611 5612 5614 5615 5617 5619 5621 5623 5624 5626 5628 5629 5631 5633 5635 5637 5638 5640 5641 5643 5646 5648 5649 5651 5653 5655 5656 5657 5659 5659 5660 5661 5662 5662 5663 5664 5663 5663 5664 5665 5666 5667 5667 5667 5667 5668 5668 5668 5669 5669 5669 5669 5669 5669 5670 5669 5669 5669 5668 5667 5666 5666 5665 5665 5664 5663 5662 5662 5661 5661 5660 5659 5658 5657 5655 5654 5652 5650 5648 5646
5596 5597 5599 5600 5601 5603 5604 5606 5607 5609 5610 5612 5614 5616 5617 5619 5621 5623 5625 5627 5629 5630 5632 5633 5635 5637 5639 5640 5642 5643 5645 5647 5649 5650 5651 5652 5653 5655 5656 5657 5657 5656 5656 5657 5659 5661 5661 5661 5661 5661 5661 5661 5662 5662 5662 5662 5662 5662 5663 5662 5662 5662 5661 5660 5660 5659 5659 5658 5657 5657 5656 5655 5654 5653 5653 5652 5651 5650 5649 5648 5647 5645 5643 5640 5638
5587 5589 5590 5592 5593 5594 5596 5597 5599 5600 5602 5604 5606 5607 5609 5610 5612 5614 5616 5618 5620 5622 5623 5625 5626 5628 5630 5632 5633 5634 5636 5637 5639 5640 5642 5642 5644 5646 5648 5649 5649 5649 5649 5650 5652 5654 5655 5655 5655 5655 5654 5654 5655 5655 5655 5655 5655 5655 5655 5655 5655 5654 5653 5652 5652 5652 5651 5650 5649 5648 5648 5647 5646 5645 5645 5644 5643 5642 5641 5640 5638 5637 5634 5632 5631
5578 5580 5582 5583 5585 5586 5588 5589 5590 5592 5593 5595 5597 5599 5601 5602 5604 5605 5607 5609 5611 5613 5615 5616 5618 5619 5621 5623 5624 5625 5627 5629 5630 5631 5632 5633 5634 5637 5639 5639 5640 5641 5642 5642 5644 5645 5647 5648 5648 5648 5647 5647 5648 5648 5648 5648 5648 5648 5647 5647 5647 5646 5645 5644 5645 5644 5643 5642 5641 5640 5640 5639 5638 5637 5637 5636 5635 5634 5633 5632 5630 5628 5626 5625 5623
5569 5571 5573 5575 5576 5578 5579 5580 5582 5583 5584 5586 5588 5590 5592 5594 5596 5597 5599 5601 5602 5604 5605 5607 5609 5611 5612 5614 5615 5617 5618 5620 5621 5622 5623 5624 5626 5627 5629 5630 5631 5632 5633 5634 5635 5636 5638 5639 5640 5640 5641 5640 5640 5641 5641 5641 5640 5640 5639 5639 5639 5639 5637 5636 5637 5636 5635 5634 5633 5632 5631 5631 5630 5629 5628 5628 5627 5626 5624 5623 5622 5620 5618 5617 5615
5558 5560 5563 5565 5567 5568 5570 5571 5573 5574 5576 5577 5579 5581 5582 5584 5587 5589 5591 5593 5594 5596 5597 5598 5600 5602 5604 5605 5607 5608 5609 5611 5612 5613 5614 5615 5617 5619 5620 5621 5622 5624 5625 5626 5627 5628 5629 5630 5632 5632 5633 5633 5633 5633 5633 5633 5633 5633 5632 5631 5630 5630 5629 5628 5628 5628 5627 5626 5625 5624 5623 5623 5622 5621 5620 5619 5618 5617 5616 5615 5614 5612 5611 5609 5607
5548 5550 5552 5554 5556 5559 5560 5562 5563 5565 5566 5568 5570 5571 5573 5575 5577 5579 5581 5584 5586 5588 5589 5590 5592 5593 5595 5597 5598 5600 5601 5603 5604 5605 5606 5607 5608 5610 5611 5612 5614 5615 5616 5618 5618 5619 5620 5622 5623 5624 5625 5625 5625 5624 5624 5624 5624 5624 5624 5624 5623 5622 5622 5621 5620 5620 5619 5618 5618 5617 5616 5615 5614 5613 5612 5611 5611 5610 5609 5607 5606 5604 5603 5601 5599
5538 5539 5541 5543 5545 5548 5550 5552 5554 5555 5557 5558 5560 5562 5564 5565 5567 5569 5572 5574 5576 5579 5580 5582 5584 5585 5586 5588 5590 5591 5593 5595 5596 5597 5598 5599 5600 5602 5603 5604 5606 5607 5608 5609 5610 5611 5612 5613 5614 5615 5616 5617 5616 5616 5616 5616 5616 5616 5616 5616 5615 5615 5615 5614 5613 5612 5611 5611 5610 5609 5608 5608 5607 5606 5605 5604 5603 5602 5601 5599 5597 5596 5594 5593 5590
5527 5529 5531 5532 5534 5536 5538 5541 5543 5545 5547 5548 5550 5552 5554 5556 5558 5560 5562 5564 5567 5569 5571 5572 5575 5577 5578 5579 5581 5582 5584 5586 5587 5588 5589 5590 5592 5593 5594 5596 5597 5599 5600 5601 5602 5603 5604 5605 5606 5606 5607 5608 5608 5608 5608 5608 5608 5607 5608 5608 5608 5608 5607 5606 5605 5605 5605 5604 5603 5602 5601 5600 5599 5598 5597 5596 5595 5594 5592 5590 5589 5587 5585 5584 5582
5516 5518 5520 5522 5524 5526 5528 5530 5532 5534 5536 5537 5539 5542 5544 5546 5549 5551 5553 5555 5557 5559 5561 5563 5564 5567 5569 5571 5572 5574 5576 5577 5578 5579 5580 5581 5582 5584 5585 5587 5588 5589 5591 5592 5593 5594 5595 5596 5597 5598 5599 5600 5600 5600 5599 5599 5599 5599 5599 5600 5600 5600 5599 5598 5597 5597 5597 5596 5595 5594 5593 5592 5592 5590 5589 5587 5587 5586 5583 5581 5579 5578 5576 5575 5574
5504 5507 5509 5511 5513 5515 5517 5519 5521 5523 5525 5526 5528 5530 5533 5535 5538 5541 5544 5545 5547 5550 5552 5553 5555 5557 5559 5561 5563 5565 5567 5568 5570 5571 5571 5572 5573 5575 5576 5577 5579 5580 5582 5583 5584 5585 5586 5587 5588 5589 5591 5591 5591 5591 5591 5591 5591 5591 5591 5591 5592 5591 5590 5589 5589 5589 5588 5588 5587 5585 5584 5584 5584 5582 5580 5579 5578 5577 5575 5572 5570 5568 5567 5566 5565
5492 5495 5497 5499 5502 5504 5506 5509 5510 5512 5514 5515 5517 5519 5521 5524 5527 5530 5533 5535 5537 5539 5542 5544 5546 5548 5549 5551 5553 5555 5557 5559 5561 5562 5563 5564 5565 5566 5568 5569 5570 5571 5573 5574 5575 5576 5577 5578 5579 5580 5581 5582 5582 5583 5583 5582 5582 5582 5582 5582 5583 5582 5581 5581 5581 5580 5579 5579 5578 5577 5576 5576 5576 5574 5572 5570 5568 5567 5565 5563 5561 5559 5557 5556 5555
5480 5482 5484 5487 5490 5492 5494 5497 5499 5501 5503 5504 5505 5507 5510 5512 5514 5518 5522 5525 5527 5529 5531 5534 5536 5538 5540 5542 5544 5546 5547 5549 5551 5552 5553 5554 5556 5558 5559 5561 5562 5563 5564 5565 5566 5567 5568 5569 5570 5571 5571 5572 5573 5574 5573 5573 5573 5573 5573 5574 5574 5573 5571 5572 5572 5571 5570 5571 5570 5569 5568 5568 5567 5566 5564 5562 5560 5558 5556 5554 5552 5550 5548 5547 5546
5466 5469 5471 5474 5477 5480 5482 5485 5488 5490 5492 5492 5493 5495 5498 5500 5502 5505 5509 5513 5516 5518 5521 5523 5525 5527 5529 5532 5535 5536 5538 5539 5540 5542 5543 5545 5546 5548 5550 5552 5553 5554 5555 5556 5557 5558 5559 5560 5561 5562 5562 5563 5564 5564 5563 5563 5564 5564 5564 5564 5564 5564 5563 5563 5563 5562 5562 5562 5562 5561 5559 5559 5558 5556 5554 5553 5551 5549 5548 5545 5542 5541 5539 5537 5536
5453 5455 5458 5461 5464 5467 5469 5472 5476 5479 5480 5480 5481 5483 5485 5487 5489 5492 5497 5500 5504 5507 5510 5512 5515 5517 5518 5521 5524 5527 5528 5529 5530 5531 5533 5535 5537 5538 5540 5542 5543 5545 5546 5547 5548 5549 5549 5551 5552 5553 5554 5554 5555 5555 5554 5554 5554 5554 5555 5555 5554 5555 5555 5554 5554 5554 5553 5552 5552 5552 5550 5549 5548 5546 5544 5544 5543 5540 5539 5536 5533 5531 5529 5527 5525
5439 5442 5445 5447 5450 5453 5456 5459 5462 5467 5469 5468 5469 5471 5473 5474 5477 5480 5484 5488 5491 5495 5499 5501 5503 5506 5508 5510 5513 5516 5518 5519 5520 5520 5522 5525 5527 5528 5530 5532 5534 5535 5536 5537 5539 5539 5540 5541 5542 5543 5545 5545 5546 5546 5545 5546 5545 5545 5545 5545 5545 5546 5546 5545 5546 5545 5544 5543 5543 5543 5542 5539 5537 5535 5534 5533 5533 5531 5529 5526 5523 5522 5520 5517 5515
5424 5427 5430 5434 5437 5440 5443 5445 5448 5453 5457 5456 5456 5459 5461 5461 5464 5467 5471 5475 5479 5483 5487 5489 5491 5494 5497 5499 5501 5504 5506 5508 5509 5509 5510 5513 5516 5518 5520 5522 5524 5525 5527 5527 5529 5529 5530 5531 5532 5534 5535 5536 5536 5536 5536 5537 5537 5536 5537 5536 5536 5537 5537 5537 5537 5536 5535 5534 5533 5533 5532 5530 5528 5525 5523 5523 5523 5522 5520 5517 5514 5513 5511 5508 5505
5410 5412 5415 5419 5423 5425 5428 5432 5434 5438 5444 5444 5443 5445 5448 5448 5450 5454 5458 5462 5466 5471 5474 5476 5479 5482 5486 5488 5490 5492 5495 5497 5498 5498 5499 5502 5505 5507 5509 5511 5513 5515 5516 5518 5518 5518 5520 5521 5522 5524 5525 5525 5526 5527 5527 5528 5528 5527 5527 5526 5526 5527 5527 5527 5527 5526 5525 5524 5524 5524 5523 5521 5519 5516 5514 5513 5512 5511 5510 5507 5505 5503 5502 5499 5496
5394 5397 5400 5403 5408 5411 5414 5417 5420 5424 5429 5432 5431 5431 5434 5435 5436 5440 5445 5448 5454 5458 5460 5463 5467 5470 5474 5477 5479 5481 5483 5485 5486 5487 5488 5490 5494 5496 5498 5500 5503 5505 5506 5506 5507 5508 5510 5511 5512 5514 5515 5515 5517 5517 5517 5518 5518 5518 5518 5517 5516 5517 5518 5517 5516 5515 5515 5514 5515 5515 5514 5513 5510 5507 5505 5504 5502 5500 5499 5498 5495 5493 5491 5488 5486